Location: Tamazert
(32.6352°N, 5.2072°W)
Time: 05:47:11
(UTC+00:00)

Vanguard 2 - Pass Details

Date: 04 October 2022
Orbit: 553 x 2933 km, 32.9° (Epoch: 26 November)

Event Time Altitude Azimuth Distance (km) Brightness Sun altitude
Rises 13:06:55 0° 250° (WSW) 4,433 11.8 50.5°
Reaches altitude 10° 13:09:24 10° 249° (WSW) 3,716 11.6 50.3°
Maximum altitude 13:19:46 81° 164° (SSE) 2,185 10.9 49.3°
Drops below altitude 10° 13:36:15 10° 80° (E) 5,616 11.7 47.6°
Sets 13:40:58 0° 80° (E) 6,749 12.0 47.0°
